User: anonymous   Login
Location: Peebles
(55.6412°N, 3.1714°W)
Time: 07:42:11
(UTC+00:00)
Language:

Meteor 1-22 Rocket - Orbit

View from above orbital plane
View from above orbital plane
View from above satellite
View from above satellite

Ground track
Ground track

The orbit data is extracted from the following two-line orbital elements,

1 08294U 75087B   21336.81197846 -.00000006  00000-0 -10919-4 0  9991
2 08294  81.2161 234.1521 0106564 125.2023 235.9182 14.08669009374028
Epoch (UTC): 02 December 2021 19:29:14
Eccentricity: 0.0106564
inclination: 81.2161°
perigee height: 787 km
apogee height: 941 km
right ascension of ascending node: 234.1521°
argument of perigee: 125.2023°
revolutions per day: 14.08669009
mean anomaly at epoch: 235.9182°
orbit number at epoch: 37402

The dashed part of the orbit path shows where the satellite is in the earth's shadow,  

DLR